www.pogodaiklimat.ru

Погода и климат >> Архив погоды >> Польша >> Nowy Sacz


ПОГОДА в Nowy Sacz

  • Прогноз погоды в Nowy Sacz
  • Монитор погоды в Nowy Sacz
  • Климат города

АРХИВ ПОГОДЫ в Nowy Sacz

Время (UTC), дата Ветер
(напр.,м/с)
 
Видим.   Явления Облачность Т
(С)
Тd
(С)
f
(%)
Тe
(С)
Тes
(С)
Комфортность P
(гПа)
Po
(гПа)
Тmin
(С)
Tmax
(С)
R
(мм)
R24
(мм)
S
(см)
22 11.12 Ю 4-11
{12}
40 км н/о +10.4 +3.9 64 +8 +8 996.7 962.1
23 11.12 ЮВ 4-12
{15}
45 км н/о +10.5 +3.7 63 +8 +8 996.7 962.1
00 12.12 Ю 5-14
{15}
40 км н/о +11.0 +3.8 61 +8 +8 995.9 961.4
01 12.12 ЮВ 6-13
{13}
45 км н/о +11.8 +3.8 58 +9 +9 995.8 961.4
02 12.12 Ю 5-10
{15}
50 км н/о +12.3 +4.0 57 +10 +10 995.4 961.1
03 12.12 ЮВ 4-10
{15}
45 км н/о +12.5 +4.0 56 +11 +11 996.0 961.7
04 12.12 ЮВ 4
{11}
50 км н/о +12.6 +4.0 56 +11 +11 996.5 962.2
05 12.12 ЮЗ 2
{9}
50 км н/о +11.9 +3.9 58 +11 +11 997.6 963.2
06 12.12 Ю 2
{15}
24 км н/о +12.6 +4.0 56 +12 +12 998.5 964.1 +9.9 +12.7
07 12.12 Ю 3-8
{9}
40 км н/о +13.1 +4.5 56 +12 +12 999.2 964.8
08 12.12 Ю 6-12
{13}
15 км н/о +12.4 +4.4 58 +10 +10 1000.6 966.1
09 12.12 ЮВ 4-10
{13}
30 км н/о +12.5 +4.2 57 +11 +11 1002.1 967.6
10 12.12 Ю 3
{9}
16 км н/о +12.5 +4.5 58 +11 +11 1002.8 968.3
11 12.12 Ю 2
{9}
35 км н/о +12.4 +4.6 59 +12 +12 1004.0 969.4
12 12.12 З 3
{13}
17 км ливневой дождь н/о +10.5 +4.6 67 +9 +9 1005.7 970.8 0.0
13 12.12 Ю 3 30 км в посл. час дождь со снегом н/о +10.8 +4.7 66 +9 +9 1006.6 971.7
14 12.12 ЮЗ 4 40 км н/о +10.9 +1.4 52 +9 +9 1008.0 973.1
15 12.12 Ю 3 50 км н/о +9.9 +1.5 56 +8 +8 1008.9 973.8
16 12.12 ЮЗ 3 24 км н/о +9.1 +1.5 59 +7 +7 1009.2 974.0
17 12.12 З 3 10 км н/о +8.7 +3.5 70 +6 +6 1010.2 974.9
18 12.12 З 4 9000 м дымка н/о +8.9 +2.9 66 +6 +6 1011.2 975.9 +8.5 +13.1 0.0
19 12.12 ЮЗ 2 17 км н/о +8.5 +1.6 62 +7 +7 1011.9 976.6
20 12.12 ЮЗ 2 17 км н/о +8.5 +1.6 62 +7 +7 1011.9 976.6
21 12.12 С 2 14 км н/о +7.1 +1.6 68 +5 +5 1013.8 978.2
22 12.12 СЗ 2 25 км ливневой дождь н/о +5.7 +1.0 72 +3 +3 1015.0 979.2
23 12.12 З 3 13 км слабый дождь н/о +4.3 +1.3 81 +1 +1 1015.9 979.9
00 13.12 ЮВ 1 24 км в посл. час снег н/о +4.5 +0.3 74 +3 +3 1016.1 980.1 0.1
01 13.12 штиль 0 17 км н/о +4.0 +0.5 78 +3 +3 1016.9 980.8
02 13.12 С 1 21 км н/о +3.9 +0.1 76 +3 +3 1017.0 980.9
03 13.12 З 2-7
{7}
50 км н/о +4.1 -2.1 64 +2 +2 1017.2 981.1
04 13.12 С 1
{8}
24 км н/о +3.5 -1.1 72 +2 +2 1017.8 981.6
05 13.12 С 1 30 км н/о +3.5 -2.5 65 +2 +2 1017.8 981.6
06 13.12 ЮЗ 1 13 км н/о +2.7 -0.8 78 +1 +1 1018.4 982.1 +2.7 +9.2 0.1 1
07 13.12 штиль 0 3800 м дымка н/о +2.6 -1.0 77 +2 +2 1019.0 982.7
08 13.12 ЮВ 1 5000 м дымка н/о +2.8 +0.2 83 +1 +1 1019.1 982.8
09 13.12 З 1 5000 м дымка н/о +3.3 +0.2 80 +2 +2 1019.6 983.3
10 13.12 СЗ 2 21 км н/о +3.2 -1.8 70 +1 +1 1019.2 982.9
11 13.12 С 1 22 км н/о +3.6 -2.6 64 +3 +3 1018.4 982.2
12 13.12 СВ 2 18 км н/о +3.5 -3.1 62 +1 +1 1017.7 981.5
13 13.12 СВ 1 23 км н/о +3.4 -3.0 63 +2 +2 1017.1 980.9
14 13.12 В 2 13 км н/о +3.1 -2.6 66 0 0 1016.8 980.6
15 13.12 В 1 5000 м дымка н/о +1.9 -2.4 73 0 0 1016.3 980.0
16 13.12 В 2 4900 м дымка н/о +0.8 -2.4 79 -3 -3 1015.8 979.3
17 13.12 В 1 2300 м дымка н/о -0.6 -2.3 88 -3 -3 1015.1 978.5
18 13.12 В 1 1900 м дымка н/о -1.0 -2.4 90 -3 -3 1014.4 977.7 -1.6 +3.6
19 13.12 С 1 1200 м пыльная буря н/о -2.1 -3.2 92 -4 -4 1013.8 977.0
20 13.12 В 1 1500 м 20 н/о -2.1 -3.2 92 -4 -4 1012.7 976.0
21 13.12 ЮВ 1 1000 м туман н/о -3.2 -4.3 92 -6 -6 1011.9 975.0
22 13.12 СВ 1 900 м сильная пыльная буря н/о -3.4 -4.1 95 -6 -6 1010.6 973.8
23 13.12 ЮВ 1 2200 м 20 н/о -2.3 -3.1 94 -5 -5 1009.0 972.4
00 14.12 З 1 4000 м дымка н/о -2.5 -4.1 89 -5 -5 1007.7 971.1
01 14.12 Ю 3
{7}
16 км н/о +1.0 -4.6 66 -3 -3 1005.6 969.5
02 14.12 Ю 5-11
{11}
50 км н/о +2.4 -6.0 54 -2 -2 1004.1 968.3
03 14.12 Ю 4
{15}
50 км н/о +2.5 -6.1 53 -2 -2 1003.2 967.4
04 14.12 Ю 5-15
{15}
50 км н/о +2.9 -5.8 53 -2 -2 1002.6 966.9
05 14.12 ЮВ 6-11
{14}
11 км н/о +3.2 -4.3 58 -2 -2 1001.3 965.7
06 14.12 ЮВ 4-10
{15}
35 км н/о +3.1 -3.5 62 -1 -1 1000.6 965.0 -3.8 +3.4
07 14.12 ЮВ 5-11
{12}
6000 м дымка н/о +3.3 -3.5 61 -1 -1 1000.8 965.2
08 14.12 Ю 5-10
{13}
45 км н/о +3.0 -3.4 63 -2 -2 1000.5 964.9
09 14.12 Ю 5-10
{23}
45 км н/о +3.2 -3.4 62 -2 -2 1001.1 965.5
10 14.12 Ю 5-12
{12}
45 км н/о +3.9 -3.2 60 -1 -1 1000.7 965.2
11 14.12 Ю 4-9
{11}
50 км н/о +4.7 -2.6 59 +1 +1 1000.3 964.9
12 14.12 Ю 3
{23}
40 км н/о +5.4 -2.0 59 +2 +2 1000.4 965.1
13 14.12 В 5-10
{17}
18 км н/о +4.9 -2.0 61 +1 +1 1000.0 964.6
14 14.12 ЮВ 2
{9}
28 км н/о +4.9 -2.5 59 +3 +3 1001.0 965.6
15 14.12 С 2
{17}
7000 м дымка н/о +3.4 -1.8 69 +1 +1 1002.6 966.9
16 14.12 СЗ 1 5000 м дымка н/о +3.8 -2.8 62 +3 +3 1002.8 967.2
17 14.12 ЮЗ 5 27 км н/о +4.6 -3.4 56 0 0 1003.5 968.0
18 14.12 ЮЗ 4
{17}
21 км н/о +3.4 -3.4 61 -1 -1 1003.7 968.0 +2.9 +5.6
19 14.12 Ю 1 27 км н/о +2.2 -2.9 69 +1 +1 1004.5 968.6
20 14.12 З 1 5000 м дымка н/о +1.0 -2.8 76 -1 -1 1004.7 968.7
21 14.12 Ю 1 3400 м дымка н/о -0.1 -3.0 81 -2 -2 1003.5 967.4
22 14.12 З 1 6000 м дымка н/о -0.5 -2.7 85 -3 -3 1004.3 968.1
23 14.12 Ю 1 3400 м дымка н/о -0.6 -3.0 84 -3 -3 1003.2 967.0
00 15.12 СЗ 1 3600 м дымка н/о -1.2 -2.9 88 -3 -3 1003.1 966.8
01 15.12 В 2 3000 м дымка н/о -0.5 -2.6 86 -4 -4 1003.5 967.3
02 15.12 ЮЗ 1 7000 м дымка н/о -0.3 -2.7 84 -2 -2 1001.9 965.8
03 15.12 Ю 1 22 км н/о +0.9 -2.5 78 -1 -1 1001.1 965.2
04 15.12 Ю 3 50 км н/о +2.7 -2.6 68 -1 -1 1000.7 965.0
05 15.12 ЮВ 2-9
{9}
21 км н/о +3.6 -2.0 67 +1 +1 999.5 964.0
06 15.12 Ю 2
{9}
2500 м дымка н/о +3.4 -1.4 71 +1 +1 999.6 964.0 -1.3 +3.8
07 15.12 Ю 3 9000 м дымка н/о +2.7 +0.3 84 -1 -1 999.2 963.6
08 15.12 штиль 0 17 км н/о +3.2 +0.6 83 +2 +2 999.6 964.0
09 15.12 ЮЗ 2 28 км н/о +5.3 +1.4 76 +3 +3 999.0 963.7
10 15.12 Ю 2 35 км н/о +7.6 +2.1 68 +6 +6 998.1 963.1
11 15.12 ЮЗ 3
{9}
30 км н/о +5.8 +1.7 75 +3 +3 998.6 963.4
12 15.12 Ю 2
{9}
45 км н/о +6.4 +1.9 73 +4 +4 998.4 963.3
13 15.12 З 1 11 км н/о +5.7 +2.0 77 +5 +5 998.5 963.3
14 15.12 Ю 2 22 км н/о +5.3 +2.1 80 +3 +3 999.8 964.5
15 15.12 ЮВ 1 8000 м дымка н/о +5.2 +1.3 76 +4 +4 1000.1 964.8
16 15.12 СВ 1 3500 м дымка н/о +4.5 +1.0 78 +3 +3 1001.1 965.6
17 15.12 З 3 4100 м дымка н/о +3.9 +0.2 77 0 0 1001.5 965.9
18 15.12 Ю 1 3400 м дымка н/о +3.6 -0.2 76 +2 +2 1002.2 966.6 +2.6 +7.8
19 15.12 В 2 1900 м дымка н/о +2.8 +0.2 83 -0 -0 1002.2 966.5
20 15.12 С 1 2400 м дымка н/о +2.0 +0.1 87 0 0 1002.2 966.4
21 15.12 В 2 2500 м дымка н/о +2.5 +0.1 84 -1 -1 1002.9 967.1
22 15.12 В 1 1600 м дымка н/о +1.6 -0.3 87 -0 -0 1003.1 967.2
23 15.12 СВ 1 1200 м дымка н/о +1.1 -0.4 90 -1 -1 1003.0 967.0
00 16.12 В 1 3700 м дымка н/о +1.1 -0.7 88 -1 -1 1002.6 966.6
01 16.12 СВ 1 3000 м дымка н/о +1.4 -0.4 88 -0 -0 1002.3 966.4
02 16.12 штиль 0 1600 м дымка н/о +0.5 -0.8 91 -1 -1 1001.9 965.9
03 16.12 штиль 0 3000 м дымка н/о +0.5 -0.6 92 -1 -1 1001.8 965.8
04 16.12 Ю 1 1900 м слабый снег н/о +0.7 -0.8 90 -1 -1 1002.6 966.6
05 16.12 Ю 1 1900 м переохл. дождь (гололёд) н/о +0.3 -0.4 95 -2 -2 1002.5 966.4
06 16.12 Ю 1 1400 м переохл. дождь (гололёд) н/о +0.1 -0.3 97 -2 -2 1002.9 966.8 +0.1 +4.2 0.4
07 16.12 З 1 2500 м в посл. час переохл. осадки н/о +0.1 -0.3 97 -2 -2 1003.4 967.3
08 16.12 СВ 1 1800 м дымка н/о +0.4 0.0 97 -2 -2 1003.4 967.3
09 16.12 СЗ 2 8000 м дымка н/о +1.0 -0.5 90 -3 -3 1003.9 967.9
10 16.12 СЗ 2 14 км н/о +1.2 -1.2 84 -2 -2 1004.2 968.2
11 16.12 СЗ 2 12 км н/о +1.2 -1.7 81 -2 -2 1004.8 968.8
12 16.12 З 5 13 км н/о +1.5 -2.8 73 -4 -4 1005.9 969.9 0.1
13 16.12 З 3 9000 м н/о +1.8 -3.1 70 -2 -2 1006.7 970.7
14 16.12 З 4 10 км н/о +1.9 -3.6 67 -3 -3 1007.8 971.8
15 16.12 З 5 9000 м н/о +1.7 -4.2 65 -4 -4 1008.8 972.7
16 16.12 З 3-8
{8}
9000 м н/о +1.5 -4.0 67 -3 -3 1010.1 973.9
17 16.12 З 3 8000 м дымка н/о +1.4 -3.9 68 -3 -3 1011.0 974.8
18 16.12 З 2
{8}
6000 м дымка н/о +1.4 -4.3 66 -2 -2 1011.8 975.6 +0.1 +1.9 0.1
19 16.12 ЮЗ 2 2800 м дымка н/о +1.0 -4.2 68 -2 -2 1012.2 975.9
20 16.12 ЮЗ 1 7000 м дымка н/о +1.1 -4.6 66 -0 -0 1012.8 976.5
21 16.12 З 2 1900 м дымка н/о +0.4 -3.3 76 -3 -3 1013.3 976.9
22 16.12 Ю 2 4200 м дымка н/о +0.7 -4.0 71 -3 -3 1013.8 977.4
23 16.12 ЮЗ 2 2900 м дымка н/о -0.3 -3.3 80 -4 -4 1014.3 977.7
00 17.12 ЮВ 1 6000 м дымка н/о +0.1 -3.3 78 -2 -2 1014.8 978.3
01 17.12 ЮЗ 2 13 км н/о -0.3 -3.8 77 -4 -4 1015.3 978.7
02 17.12 Ю 2 15 км н/о -1.0 -4.5 77 -5 -5 1015.8 979.1
03 17.12 Ю 2 14 км н/о -1.0 -4.7 76 -5 -5 1015.8 979.1
04 17.12 ЮВ 2 6000 м дымка н/о -2.1 -4.0 87 -6 -6 1016.6 979.7
05 17.12 Ю 1 9000 м дымка н/о -2.2 -4.2 86 -4 -4 1016.9 980.0
06 17.12 Ю 1 12 км н/о -1.8 -4.5 82 -4 -4 1017.7 980.8 -2.6 +1.5
07 17.12 Ю 1 13 км н/о -1.5 -4.5 80 -4 -4 1018.3 981.4
08 17.12 СЗ 1 2700 м слабый снег н/о -1.4 -3.8 84 -4 -4 1018.9 982.0
09 17.12 ЮЗ 1 5000 м в посл. час снег н/о -0.9 -3.3 84 -3 -3 1019.1 982.3
10 17.12 С 1 5000 м дымка н/о -0.2 -2.7 83 -2 -2 1018.8 982.1
11 17.12 В 1 6000 м дымка н/о +0.8 -2.8 77 -1 -1 1018.8 982.2
12 17.12 В 2 7000 м дымка н/о +2.2 -3.5 66 -1 -1 1018.5 982.1 0.0
13 17.12 СЗ 1 11 км н/о +2.6 -2.5 69 +1 +1 1018.6 982.3
14 17.12 С 2 11 км н/о +1.6 -2.2 76 -2 -2 1019.2 982.7
15 17.12 СВ 1 4200 м дымка н/о +0.6 -2.1 82 -1 -1 1019.7 983.1
16 17.12 ЮВ 1 3200 м дымка н/о -1.1 -2.7 89 -3 -3 1020.6 983.7
17 17.12 Ю 1 2300 м дымка н/о -1.7 -2.8 92 -4 -4 1021.4 984.4
18 17.12 штиль 0 1900 м дымка н/о -1.3 -2.4 92 -3 -3 1021.8 984.8 -2.1 +2.7 0.0
19 17.12 СВ 1 1700 м дымка н/о -1.3 -2.7 90 -4 -4 1022.0 985.0
20 17.12 ЮЗ 1 1200 м слабый ливневой снег н/о -1.3 -2.4 92 -4 -4 1022.3 985.3
21 17.12 В 1 1200 м слаб. ливневой снег н/о -1.1 -2.2 92 -3 -3 1022.8 985.8
22 17.12 В 2 1100 м в посл. час дождь н/о -1.7 -2.5 94 -6 -6 1023.3 986.2
23 17.12 СВ 1
{7}
900 м сильная пыльная буря н/о -2.0 -2.7 95 -4 -4 1023.4 986.3
00 18.12 штиль 0
{7}
500 м сильная пыльная буря н/о -2.4 -3.1 95 -4 -4 1023.4 986.2 0.0
01 18.12 штиль 0 400 м сильная пыльная буря н/о -3.1 -3.6 96 -4 -4 1023.8 986.5
02 18.12 З 1 1500 м 20 н/о -2.4 -2.8 97 -5 -5 1023.8 986.6
03 18.12 СВ 1 1600 м дымка н/о -2.4 -3.0 96 -5 -5 1023.9 986.7
04 18.12 ЮЗ 1 1000 м дымка н/о -2.4 -3.0 96 -5 -5 1024.3 987.1
05 18.12 СВ 1 1200 м дымка н/о -1.9 -2.5 96 -4 -4 1024.3 987.2
06 18.12 ЮЗ 1 1000 м пыльная буря н/о -1.8 -2.4 96 -4 -4 1024.5 987.4 -3.2 -1.0 0.0
07 18.12 ЮЗ 1
{8}
1000 м слабый ливневой снег н/о -1.9 -2.5 96 -4 -4 1025.0 987.8
08 18.12 ЮЗ 1 1100 м в посл. час переохл. осадки н/о -1.5 -2.1 96 -4 -4 1025.2 988.1
09 18.12 З 1
{8}
1500 м в посл. час туман н/о -1.0 -1.6 96 -3 -3 1025.6 988.5
10 18.12 СЗ 2 3900 м слабый ливневой снег н/о -0.4 -1.4 93 -4 -4 1025.5 988.5
11 18.12 СЗ 2 4900 м в посл. час дождь со снегом н/о -0.2 -1.8 89 -4 -4 1025.4 988.5
12 18.12 СЗ 2
{8}
5000 м в посл. час дождь н/о -0.2 -2.3 86 -4 -4 1025.4 988.5 0.0
13 18.12 СЗ 2 6000 м дымка н/о -0.3 -2.7 84 -4 -4 1025.6 988.6
14 18.12 СЗ 2-7
{7}
6000 м дымка н/о -0.6 -2.8 85 -4 -4 1026.1 989.1
15 18.12 СЗ 2
{7}
4800 м слаб. ливневой снег н/о -0.8 -2.8 86 -5 -5 1026.4 989.3
16 18.12 С 2 4800 м в посл. час переохл. осадки н/о -1.0 -2.9 87 -5 -5 1026.9 989.8
17 18.12 СЗ 2
{7}
4000 м слабый ливневой снег н/о -1.0 -2.7 88 -5 -5 1027.2 990.1
18 18.12 С 1
{7}
4100 м слабый ливневой снег н/о -0.9 -2.8 87 -3 -3 1027.5 990.4 -1.9 0.0 0.0
19 18.12 С 1 4100 м слабый ливневой снег н/о -0.7 -2.4 88 -3 -3 1027.7 990.6
20 18.12 С 1 4500 м слабый ливневой снег н/о -0.8 -2.4 89 -3 -3 1027.9 990.8
21 18.12 СЗ 2 4500 м в посл. час снег н/о -0.7 -2.1 90 -5 -5 1028.1 991.0

 

Местоположение метеостанции Nowy Sacz (Польша): широта 49.62 долгота 20.70 высота над уровнем моря 295 м.

В архиве по умолчанию представлена погода в Nowy Sacz за последнюю неделю. Архивные данные за месяц целиком и за предыдущие месяцы, начиная с января 2011 года, Вы можете получить, выбрав интересующий диапазон дат из раскрывающегося списка и нажав кнопку "Ввод!".

Внимание! Время в таблицах - всемирное. Для получения местного времени необходимо прибавить поправку, которая в Nowy Sacz равна 1 ч.

Смотрите также архив погоды в соседних городах и на ближайших метеорологических станциях:

Погода в Tarnow (Польша) (50 км)
Погода в Lomnicky Stit (Словакия) (58 км)
Погода в Zakopane (Польша) (64 км)
Погода в Kasprowy Wierch (Польша) (68 км)
Погода в Poprad (Словакия) (69 км)
Погода в Poprad-Ganovce (Словакия) (71 км)
Погода в Strbske Pleso (Словакия) (71 км)
Погода в Krosno (Польша) (76 км)
Погода в Liesek (Словакия) (79 км)
Погода в Presov (Словакия) (80 км)

Пояснения к столбцам:

Ветер - указаны скорость ветра в м/с - средняя за 10 мин, порывы в срок и между сроками (в фигурных скобках) и направление, откуда дует ветер: С - северный, СВ - северо-восточный, В - восточный, ЮВ - юго-восточный, Ю - южный, ЮЗ - юго-западный, З - западный, СЗ - северо-западный.
Видимость - горизонтальная дальность видимости в метрах или километрах. При видимости от 1 до 10 км при отсутствии осадков обычно наблюдается дымка, при ухудшении видимости до 1 км и менее - туман. В сухую погоду видимость может ухудшаться дымом, пылью или мглою.
Явления - указаны атмосферные явления, наблюдавшиеся в срок или в последний час перед сроком; фигурными скобками обозначены явления, наблюдавшиеся между сроками (за 1-3 часа до срока); квадратными скобками обозначены град или гололедные отложения с указанием их диаметра в мм.
Облачность - указаны через наклонную черту общая и нижняя облачность в баллах и высота нижней границы облаков в метрах; квадратными скобками обозначены формы облаков: Ci - перистые, Cs - перисто-слоистые, Cc - перисто-кучевые, Ac - высококучевые, As - высокослоистые, Sc - слоисто-кучевые, Ns - слоисто-дождевые, Cu - кучевые, Cb - кучево-дождевые. Подробнее классификацию облаков см. в Атласе облаков (PDF).
T - Температура воздуха - температура, измеренная на высоте 2 м над землей.
Td - Температура точки росы - температура, при понижении до которой содержащийся в воздухе водяной пар достигнет насыщения.
f - Относительная влажность воздуха - влажноcть воздуха, измеренная на высоте 2 м над землей.
Te - Эффективная температура - температура, которую ощущает одетый по сезону человек в тени. Характеристика душности погоды. При расчете учитывается влияние влажности воздуха и скорости ветра на теплоощущения человека.
Tes - Эффективная температура на солнце - температура, которую ощущает человек, с поправкой на солнечный нагрев. Характеристика знойности погоды. Зависит от высоты солнца над горизонтом, облачности и скорости ветра. Ночью, в пасмурную погоду, а также при ветре 12 м/с и более поправка равна нулю.
P - Атмосферное давление - приведенное к уровню моря атмосферное давление.
Po - Атмосферное давление - измеренное на уровне метеостанции атмосферное давление.
Tmin - Минимальная температура - минимум температуры воздуха на высоте 2 м над землей.
Tmax - Максимальная температура - максимум температуры воздуха на высоте 2 м над землей.
R - Количество осадков - Количество выпавших осадков за период времени, мм. При наведении курсора мыши на число - период времени, за который выпало указанное количество осадков.
R24 - Количество осадков - Количество выпавших осадков за 24 часа, мм.
S - Снежный покров - Высота снежного покрова, см. При наведении курсора мыши на число - состояние снежного покрова и степень покрытия местности в баллах.